timestamp,wind_dir_avg,wind_spd_max_dir,wind_spd_avg,wind_spd_gust,battery_voltage,lat,long
2018-11-18 00:00:00+00:00,311.0,308.0,8.77,10.68,,47.59359,-54.27349
2018-11-18 00:10:00+00:00,327.0,334.0,7.34,9.03,,47.59359,-54.27349
2018-11-18 00:20:00+00:00,320.0,316.0,7.5,8.85,,47.59359,-54.27349
2018-11-18 00:30:00+00:00,311.0,310.0,9.18,10.26,,47.59359,-54.27349
2018-11-18 00:40:00+00:00,318.0,320.0,9.6,11.75,,47.59359,-54.27349
2018-11-18 00:50:00+00:00,314.0,312.0,11.0,13.02,,47.59359,-54.27349
2018-11-18 01:00:00+00:00,310.0,306.0,10.49,11.43,,47.59359,-54.27349
2018-11-18 01:10:00+00:00,315.0,313.0,11.0,12.89,,47.59359,-54.27349
2018-11-18 01:20:00+00:00,320.0,318.0,10.65,12.84,,47.59359,-54.27349
2018-11-18 01:30:00+00:00,318.0,311.0,9.95,12.4,,47.59359,-54.27349
2018-11-18 01:40:00+00:00,318.0,321.0,11.69,13.13,,47.59359,-54.27349
2018-11-18 01:50:00+00:00,317.0,324.0,11.18,13.42,,47.59359,-54.27349
2018-11-18 02:00:00+00:00,308.0,309.0,10.37,11.64,,47.59359,-54.27349
2018-11-18 02:10:00+00:00,309.0,309.0,9.63,11.27,,47.59359,-54.27349
2018-11-18 02:20:00+00:00,316.0,316.0,10.76,12.13,,47.59359,-54.27349
2018-11-18 02:30:00+00:00,315.0,319.0,9.58,11.16,,47.59359,-54.27349
2018-11-18 02:40:00+00:00,313.0,316.0,10.13,11.83,,47.59359,-54.27349
2018-11-18 02:50:00+00:00,314.0,311.0,9.51,10.57,,47.59359,-54.27349
2018-11-18 03:00:00+00:00,317.0,317.0,10.31,11.58,,47.59359,-54.27349
2018-11-18 03:10:00+00:00,317.0,308.0,9.22,11.46,,47.59359,-54.27349
2018-11-18 03:20:00+00:00,324.0,320.0,7.62,8.9,,47.59359,-54.27349
2018-11-18 03:30:00+00:00,311.0,309.0,7.32,8.67,,47.59359,-54.27349
2018-11-18 03:40:00+00:00,318.0,322.0,8.08,9.56,,47.59359,-54.27349
2018-11-18 03:50:00+00:00,317.0,321.0,7.46,8.28,,47.59359,-54.27349
2018-11-18 04:00:00+00:00,324.0,324.0,7.13,9.94,,47.59359,-54.27349
2018-11-18 04:10:00+00:00,314.0,316.0,8.46,10.42,,47.59359,-54.27349
2018-11-18 04:20:00+00:00,315.0,319.0,6.94,8.16,,47.59359,-54.27349
2018-11-18 04:30:00+00:00,314.0,315.0,8.11,10.46,,47.59359,-54.27349
2018-11-18 04:40:00+00:00,308.0,295.0,7.36,9.29,,47.59359,-54.27349
2018-11-18 04:50:00+00:00,305.0,308.0,8.34,9.44,,47.59359,-54.27349
2018-11-18 05:00:00+00:00,320.0,319.0,8.19,9.68,,47.59359,-54.27349
2018-11-18 05:10:00+00:00,318.0,318.0,8.14,9.17,,47.59359,-54.27349
2018-11-18 05:20:00+00:00,318.0,310.0,7.08,8.5,,47.59359,-54.27349
2018-11-18 05:30:00+00:00,314.0,319.0,8.5,9.88,,47.59359,-54.27349
2018-11-18 05:40:00+00:00,307.0,307.0,7.33,8.95,,47.59359,-54.27349
2018-11-18 05:50:00+00:00,305.0,300.0,7.28,8.15,,47.59359,-54.27349
2018-11-18 06:00:00+00:00,294.0,298.0,7.64,9.78,,47.59359,-54.27349
2018-11-18 06:10:00+00:00,296.0,301.0,8.46,9.7,,47.59359,-54.27349
2018-11-18 06:20:00+00:00,285.0,281.0,9.04,10.25,,47.59359,-54.27349
2018-11-18 06:30:00+00:00,285.0,283.0,7.69,9.21,,47.59359,-54.27349
2018-11-18 06:40:00+00:00,287.0,284.0,8.22,9.17,,47.59359,-54.27349
2018-11-18 06:50:00+00:00,285.0,290.0,7.62,8.67,,47.59359,-54.27349
2018-11-18 07:00:00+00:00,289.0,290.0,9.05,10.22,,47.59359,-54.27349
2018-11-18 07:10:00+00:00,290.0,288.0,8.52,9.95,,47.59359,-54.27349
2018-11-18 07:20:00+00:00,296.0,301.0,6.86,7.87,,47.59359,-54.27349
2018-11-18 07:30:00+00:00,297.0,292.0,7.09,8.28,,47.59359,-54.27349
2018-11-18 07:40:00+00:00,302.0,298.0,7.69,8.78,,47.59359,-54.27349
2018-11-18 07:50:00+00:00,297.0,302.0,7.28,8.82,,47.59359,-54.27349
2018-11-18 08:00:00+00:00,296.0,309.0,6.34,7.8,,47.59359,-54.27349
2018-11-18 08:10:00+00:00,297.0,300.0,7.85,8.98,,47.59359,-54.27349
2018-11-18 08:20:00+00:00,304.0,302.0,7.87,9.79,,47.59359,-54.27349
2018-11-18 08:30:00+00:00,295.0,294.0,7.54,9.03,,47.59359,-54.27349
2018-11-18 08:40:00+00:00,297.0,297.0,8.21,10.16,,47.59359,-54.27349
2018-11-18 08:50:00+00:00,290.0,292.0,8.0,9.11,,47.59359,-54.27349
2018-11-18 09:00:00+00:00,296.0,289.0,8.47,10.23,,47.59359,-54.27349
2018-11-18 09:10:00+00:00,297.0,306.0,7.66,9.77,,47.59359,-54.27349
2018-11-18 09:20:00+00:00,295.0,297.0,9.06,10.72,,47.59359,-54.27349
2018-11-18 09:30:00+00:00,298.0,298.0,8.52,9.67,,47.59359,-54.27349
2018-11-18 09:40:00+00:00,299.0,298.0,8.03,9.73,,47.59359,-54.27349
2018-11-18 09:50:00+00:00,299.0,298.0,6.94,7.68,,47.59359,-54.27349
2018-11-18 10:00:00+00:00,299.0,298.0,8.28,9.15,,47.59359,-54.27349
2018-11-18 10:10:00+00:00,291.0,296.0,7.52,8.65,,47.59359,-54.27349
2018-11-18 10:20:00+00:00,294.0,296.0,6.24,6.94,,47.59359,-54.27349
2018-11-18 10:30:00+00:00,301.0,296.0,5.98,8.08,,47.59359,-54.27349
2018-11-18 10:40:00+00:00,294.0,297.0,6.57,7.28,,47.59359,-54.27349
2018-11-18 10:50:00+00:00,285.0,283.0,6.3,7.52,,47.59359,-54.27349
2018-11-18 11:00:00+00:00,290.0,296.0,6.93,7.75,,47.59359,-54.27349
2018-11-18 11:10:00+00:00,293.0,287.0,5.93,6.97,,47.59359,-54.27349
2018-11-18 11:20:00+00:00,288.0,286.0,7.19,8.56,,47.59359,-54.27349
2018-11-18 11:30:00+00:00,284.0,290.0,5.45,6.58,,47.59359,-54.27349
2018-11-18 11:40:00+00:00,293.0,298.0,5.03,6.22,,47.59359,-54.27349
2018-11-18 11:50:00+00:00,302.0,305.0,6.29,7.07,,47.59359,-54.27349
2018-11-18 12:00:00+00:00,289.0,289.0,5.57,6.41,,47.59359,-54.27349
2018-11-18 12:10:00+00:00,266.0,270.0,6.74,7.62,,47.59359,-54.27349
2018-11-18 12:20:00+00:00,277.0,271.0,5.36,6.21,,47.59359,-54.27349
2018-11-18 12:30:00+00:00,291.0,291.0,6.66,7.52,,47.59359,-54.27349
2018-11-18 12:40:00+00:00,269.0,273.0,6.08,6.94,,47.59359,-54.27349
2018-11-18 12:50:00+00:00,274.0,271.0,5.4,6.9,,47.59359,-54.27349
2018-11-18 13:00:00+00:00,270.0,273.0,5.64,6.4,,47.59359,-54.27349
2018-11-18 13:10:00+00:00,265.0,260.0,7.15,8.81,,47.59359,-54.27349
2018-11-18 13:20:00+00:00,255.0,264.0,6.32,7.3,,47.59359,-54.27349
2018-11-18 13:30:00+00:00,265.0,267.0,7.95,8.93,,47.59359,-54.27349
2018-11-18 13:40:00+00:00,257.0,255.0,7.42,8.67,,47.59359,-54.27349
2018-11-18 13:50:00+00:00,255.0,256.0,7.37,8.55,,47.59359,-54.27349
2018-11-18 14:00:00+00:00,254.0,258.0,10.05,11.97,,47.59359,-54.27349
2018-11-18 14:10:00+00:00,252.0,258.0,9.56,11.38,,47.59359,-54.27349
2018-11-18 14:20:00+00:00,258.0,252.0,9.08,10.04,,47.59359,-54.27349
2018-11-18 14:30:00+00:00,264.0,263.0,8.81,9.45,,47.59359,-54.27349
2018-11-18 14:40:00+00:00,269.0,266.0,8.32,9.53,,47.59359,-54.27349
2018-11-18 14:50:00+00:00,255.0,249.0,8.1,8.9,,47.59359,-54.27349
2018-11-18 15:00:00+00:00,271.0,270.0,8.05,8.92,,47.59359,-54.27349
2018-11-18 15:10:00+00:00,284.0,288.0,7.79,9.37,,47.59359,-54.27349
2018-11-18 15:20:00+00:00,294.0,294.0,10.0,11.49,,47.59359,-54.27349
2018-11-18 15:30:00+00:00,295.0,279.0,8.09,9.36,,47.59359,-54.27349
2018-11-18 15:40:00+00:00,300.0,305.0,9.81,11.2,,47.59359,-54.27349
2018-11-18 15:50:00+00:00,295.0,298.0,9.84,10.98,,47.59359,-54.27349
2018-11-18 16:00:00+00:00,301.0,301.0,10.68,12.2,,47.59359,-54.27349
2018-11-18 16:10:00+00:00,294.0,300.0,9.07,10.07,,47.59359,-54.27349
2018-11-18 16:20:00+00:00,282.0,285.0,8.33,9.38,,47.59359,-54.27349
2018-11-18 16:30:00+00:00,291.0,292.0,11.24,12.29,,47.59359,-54.27349
2018-11-18 16:40:00+00:00,294.0,296.0,9.61,10.66,,47.59359,-54.27349
2018-11-18 16:50:00+00:00,308.0,305.0,8.3,10.32,,47.59359,-54.27349
2018-11-18 17:00:00+00:00,301.0,297.0,9.68,11.9,,47.59359,-54.27349
2018-11-18 17:10:00+00:00,308.0,307.0,9.2,10.99,,47.59359,-54.27349
2018-11-18 17:20:00+00:00,299.0,290.0,11.93,13.19,,47.59359,-54.27349
2018-11-18 17:30:00+00:00,310.0,312.0,10.47,11.97,,47.59359,-54.27349
2018-11-18 17:40:00+00:00,281.0,288.0,11.45,14.38,,47.59359,-54.27349
2018-11-18 17:50:00+00:00,303.0,303.0,9.33,10.85,,47.59359,-54.27349
2018-11-18 18:00:00+00:00,308.0,305.0,9.52,10.53,,47.59359,-54.27349
2018-11-18 18:10:00+00:00,315.0,317.0,9.38,10.42,,47.59359,-54.27349
2018-11-18 18:20:00+00:00,323.0,325.0,7.72,8.71,,47.59359,-54.27349
2018-11-18 18:30:00+00:00,322.0,318.0,9.13,10.33,,47.59359,-54.27349
2018-11-18 18:40:00+00:00,316.0,312.0,9.61,11.07,,47.59359,-54.27349
2018-11-18 18:50:00+00:00,310.0,309.0,8.09,9.02,,47.59359,-54.27349
2018-11-18 19:00:00+00:00,304.0,306.0,8.81,9.88,,47.59359,-54.27349
2018-11-18 19:10:00+00:00,308.0,307.0,9.96,12.11,,47.59359,-54.27349
2018-11-18 19:20:00+00:00,298.0,292.0,9.13,10.27,,47.59359,-54.27349
2018-11-18 19:30:00+00:00,292.0,290.0,8.78,9.9,,47.59359,-54.27349
2018-11-18 19:40:00+00:00,320.0,320.0,10.9,12.01,,47.59359,-54.27349
2018-11-18 19:50:00+00:00,315.0,320.0,9.65,11.37,,47.59359,-54.27349
2018-11-18 20:00:00+00:00,313.0,310.0,10.51,12.82,,47.59359,-54.27349
2018-11-18 20:10:00+00:00,315.0,319.0,10.16,11.81,,47.59359,-54.27349
2018-11-18 20:20:00+00:00,312.0,312.0,11.11,12.48,,47.59359,-54.27349
2018-11-18 20:30:00+00:00,310.0,312.0,11.2,12.44,,47.59359,-54.27349
2018-11-18 20:40:00+00:00,297.0,294.0,9.31,11.03,,47.59359,-54.27349
2018-11-18 20:50:00+00:00,304.0,307.0,8.25,9.56,,47.59359,-54.27349
2018-11-18 21:00:00+00:00,315.0,321.0,8.47,10.09,,47.59359,-54.27349
2018-11-18 21:10:00+00:00,299.0,303.0,8.88,10.39,,47.59359,-54.27349
2018-11-18 21:20:00+00:00,306.0,317.0,8.87,10.04,,47.59359,-54.27349
2018-11-18 21:30:00+00:00,302.0,305.0,9.43,10.86,,47.59359,-54.27349
2018-11-18 21:40:00+00:00,318.0,319.0,11.06,13.44,,47.59359,-54.27349
2018-11-18 21:50:00+00:00,313.0,316.0,10.29,12.56,,47.59359,-54.27349
2018-11-18 22:00:00+00:00,316.0,316.0,10.4,11.61,,47.59359,-54.27349
2018-11-18 22:10:00+00:00,317.0,322.0,10.54,11.96,,47.59359,-54.27349
2018-11-18 22:20:00+00:00,310.0,311.0,9.91,11.26,,47.59359,-54.27349
2018-11-18 22:30:00+00:00,313.0,313.0,9.39,10.72,,47.59359,-54.27349
2018-11-18 22:40:00+00:00,307.0,305.0,7.45,8.62,,47.59359,-54.27349
2018-11-18 22:50:00+00:00,313.0,310.0,7.65,8.67,,47.59359,-54.27349
2018-11-18 23:00:00+00:00,298.0,290.0,8.61,11.09,,47.59359,-54.27349
2018-11-18 23:10:00+00:00,308.0,303.0,7.23,8.16,,47.59359,-54.27349
2018-11-18 23:20:00+00:00,305.0,304.0,7.11,9.23,,47.59359,-54.27349
2018-11-18 23:30:00+00:00,313.0,299.0,7.96,10.2,,47.59359,-54.27349
2018-11-18 23:40:00+00:00,298.0,297.0,7.63,9.31,,47.59359,-54.27349
2018-11-18 23:50:00+00:00,301.0,305.0,7.47,9.37,,47.59359,-54.27349
